Location: Ferques
(50.8300°N, 1.7599°E)
Time: 20:36:47
(UTC+00:00)

Cosmos 1125 Rocket - Pass Details

Date: 19 May 2025
Orbit: 753 x 776 km, 74.0° (Epoch: 18 June)

Event Time Altitude Azimuth Distance (km) Brightness Sun altitude
Rises 21:01:35 0° 334° (NNW) 3,269 8.6 -10.2°
Reaches altitude 10° 21:03:59 10° 332° (NNW) 2,338 7.5 -10.4°
Maximum altitude 21:09:16 72° 250° (WSW) 818 3.7 -10.9°
Enters shadow 21:14:02 13° 167° (SSE) 2,132 5.2 -11.4°
